+ View the NASA Portal
+ Center for Near-Earth Object Studies
IMPORTANT:
The SSD Announcement email list is now available. Major changes are coming in the near future, including possible hostname and/or URL changes. To be notified of such changes, subscribe to this email list.
Please visit
this page
for more details.
Don't show this message again
JPL Small-Body Database Browser
Search:
[
help
]
117336 (2004 XP15)
Classification:
Main-belt Asteroid
SPK-ID:
2117336
[
Ephemeris
|
Orbit Diagram
|
Orbital Elements
|
Mission Design
|
Physical Parameters
|
Discovery Circumstances
]
[ show orbit diagram ]
Orbital Elements at Epoch 2458600.5 (2019-Apr-27.0) TDB
Reference:
JPL 19
(heliocentric ecliptic J2000)
Element
Value
Uncertainty (1-sigma)
Units
e
.1395880743437824
5.9511e-08
a
2.986278592957543
2.3374e-08
au
q
2.569429714712539
1.8238e-07
au
i
2.861411513922924
5.3468e-06
deg
node
341.1528574305797
9.7244e-05
deg
peri
45.62861101547139
9.8891e-05
deg
M
320.1432898753565
1.5519e-05
deg
t
p
2458809.185779426651
(2019-Nov-21.68577943)
8.1208e-05
TDB
period
1884.924278964588
5.16
2.213e-05
6.059e-08
d
yr
n
.1909891044523828
2.2423e-09
deg/d
Q
3.403127471202545
2.6637e-08
au
Orbit Determination Parameters
# obs. used (total)
647
data-arc span
9568 days (26.20 yr)
first obs. used
1993-09-14
last obs. used
2019-11-25
planetary ephem.
DE431
SB-pert. ephem.
SB431-N16
condition code
0
norm. resid. RMS
.54055
source
ORB
producer
Otto Matic
solution date
2019-Dec-04 11:00:46
Additional Information
Earth MOID
= 1.57401 au
Jupiter MOID
= 2.05793 au
T_jup
= 3.241
[ show covariance matrix ]
[
Ephemeris
|
Orbit Diagram
|
Orbital Elements
|
Mission Design
|
Physical Parameters
|
Discovery Circumstances
]
Physical Parameter Table
Parameter
Symbol
Value
Units
Sigma
Reference
Notes
absolute magnitude
H
15.2
n/a
MPO453644
diameter
diameter
2.870
km
0.186
urn:nasa:pds:neowise_diameters_albedos::2.0[mainbelt] (http://adsabs.harvard.edu/abs/2011ApJ...741...68M)
geometric albedo
albedo
0.196
0.055
urn:nasa:pds:neowise_diameters_albedos::2.0[mainbelt] (http://adsabs.harvard.edu/abs/2011ApJ...741...68M)
117336 (2004 XP15)
Discovered 2004-Dec-09 by LINEAR at Socorro
Reference:
20051019/Numbers.arc
Last Updated:
2005-10-26
Alternate Designations
2004 XP15
= 1993 RJ8
[
Ephemeris
|
Orbit Diagram
|
Orbital Elements
|
Mission Design
|
Physical Parameters
|
Discovery Circumstances
]
2019-Dec-11 06:35 UT
(server date/time)
Site Manager:
Ryan S. Park
Webmaster
:
Alan B. Chamberlin